GW0458 Weather Reports


Display with metric or nautical units.
time (UTC)temp
F
wind
direction
speed
MPH
gust
MPH
rain 1hr
in
rain 24hr
in
rain mn
in
humidity
%
barometer
mb
20260831030604 65 205 0.0 0.0 0.00 0.00 0.00 68 1024.8
20260831023602 67 207 0.0 0.0 0.00 0.00 0.00 64 1025.0
20260831020559 68 236 0.0 1.0 0.00 0.00 0.00 62 1025.0
20260831013554 69 212 1.0 1.0 0.00 0.00 0.00 58 1025.2
20260831010551 69 217 1.0 2.0 0.00 0.00 0.00 60 1025.6
20260831003547 69 249 1.0 1.0 0.00 0.00 0.00 60 1025.8
20260831000542 71 211 0.0 1.0 0.00 0.00 0.00 56 1025.9
20260830233538 72 219 1.0 1.0 0.00 0.00 0.00 57 1026.1
20260830230533 72 213 0.0 0.0 0.00 0.00 0.00 58 1026.2
20260830223533 69 205 1.0 1.0 0.00 0.00 0.00 63 1026.6
20260830220532 72 215 0.0 1.0 0.00 0.00 0.00 58 1026.5
20260830213527 69 208 0.0 1.0 0.00 0.00 0.00 63 1027.4
20260830210526 71 219 1.0 1.0 0.00 0.00 0.00 59 1027.5
20260830203526 71 213 0.0 0.0 0.00 0.00 0.00 58 1027.4
20260830200524 66 190 1.0 1.0 0.00 0.00 0.00 67 1027.9
20260830193521 66 214 1.0 1.0 0.00 0.00 0.00 66 1028.0
20260830190520 65 77 2.0 3.0 0.00 0.00 0.00 67 1028.2
20260830183517 67 212 0.0 1.0 0.00 0.00 0.00 67 1028.5
20260830180517 66 180 2.0 2.0 0.00 0.00 0.00 70 1028.6
20260830173514 64 201 1.0 1.0 0.00 0.00 0.00 71 1028.4
20260830170514 63 170 1.0 2.0 0.00 0.00 0.00 74 1028.3
20260830163511 60 176 2.0 2.0 0.00 0.00 0.00 77 1028.5
20260830160510 59 200 0.0 1.0 0.00 0.00 0.00 82 1028.6
20260830153507 58 177 1.0 2.0 0.00 0.00 0.00 85 1028.4
20260830150507 57 205 0.0 0.0 0.00 0.00 0.00 90 1028.5
20260830143507 56 201 0.0 0.0 0.00 0.00 0.00 89 1028.2
20260830140504 55 183 1.0 1.0 0.00 0.00 0.00 93 1028.2
20260830133459 55 204 1.0 1.0 0.00 0.00 0.00 91 1028.0
20260830130457 55 185 1.0 2.0 0.00 0.00 0.00 93 1028.0
20260830123455 55 191 1.0 1.0 0.00 0.00 0.00 94 1028.0
20260830120450 55 200 0.0 0.0 0.00 0.00 0.00 94 1027.9
20260830113447 55 199 0.0 0.0 0.00 0.00 0.00 92 1027.9
20260830110443 55 203 2.0 2.0 0.00 0.00 0.00 91 1027.7
20260830103439 55 199 0.0 0.0 0.00 0.00 0.00 92 1028.0
20260830100434 55 199 0.0 0.0 0.00 0.00 0.00 91 1027.9
20260830093435 56 191 2.0 2.0 0.00 0.00 0.00 90 1027.7
20260830090434 55 194 1.0 1.0 0.00 0.00 0.00 91 1027.8
20260830083429 55 178 0.0 2.0 0.00 0.00 0.00 90 1027.6
20260830080427 55 190 1.0 2.0 0.00 0.00 0.00 90 1027.5
20260830073422 55 197 0.0 0.0 0.00 0.00 0.00 92 1027.5
20260830070418 56 201 0.0 0.0 0.00 0.00 0.00 90 1027.3
20260830063417 57 200 0.0 0.0 0.00 0.29 0.29 86 1027.3
20260830060416 57 208 0.0 0.0 0.00 0.29 0.29 85 1026.9
20260830053412 57 204 0.0 0.0 0.00 0.29 0.29 86 1027.1
20260830050409 58 197 0.0 0.0 0.00 0.29 0.29 83 1027.1
20260830043405 59 205 0.0 0.0 0.00 0.29 0.29 80 1026.8
20260830040404 59 192 0.0 0.0 0.00 0.29 0.29 81 1026.3
20260830033400 60 201 0.0 1.0 0.00 0.29 0.29 80 1026.0